Terminal Aerodrome Forecast
Issued by NWS

Home | Current Version | Previous Version | Text Only | Print | Product List | Glossary On
Versions: 1 2 3 4 5 6 7 8 9 10 11 12 13 14 15 16
000
FTUS44 KEWX 232300
TAFSSF
TAF
KSSF 232326Z 2400/2424 12006KT P6SM FEW070
     FM240900 VRB03KT P6SM FEW050 SCT250
     FM241600 13005KT P6SM SCT050 BKN250=

USA.gov is the U.S. government's official web portal to all federal, state and local government web resources and services.